Find Himawari 4

NORAD ID: 20217 Int'l Des: 1989-070 Owner: NASDA Country: J operational
HEOCIRCULAR

当前视图

正在加载3D地球...

About Himawari 4

Himawari 4 (NORAD 20217) is a satellite launched Sep 5, 1989 by NASDA of J. It operates in HEO, CIRCULAR orbit with a mass of 325.00 kg.

即将过境

Passes for default location (London). Set your location on the main map for personalized predictions.

高度历史

Loading altitude history...

两行轨道根数

1 20217U 89070A 26194.53529389 -.00000084 00000-0 00000-0 0 9995
2 20217 14.7813 346.6528 0045402 147.1855 221.0089 0.97411240132802
Epoch: Jul 13, 2026 • Age: 28 hours

当前状态

高度 36621.2 km
远地点 / 近地点 N/A
速度 3.04 km/s
星下点 11.69°N, 142.63°W
发射日期 Sep 5, 1989
运行时间 36.8 years
类型 weather

技术详情

分类 Payload
质量 325.00 kg
干质量 284.00 kg
总质量 725.00 kg
长度 3.40 m
直径 2.20 m
跨度 3.40 m
形状 Cyl
制造商 NEC/HSES
平台类型 HS-378
阶段状态 In Orbit
所有者/国家 NASDA/J

Most Searched